Weather History for 93119 - March, 2013

Change the Weather History Date:

Wednesday, March 6, 2013

  Actual Average Record
Temperature  
Mean Temperature 65 °F -  
Max Temperature 73 °F 69 °F - ()
Min Temperature 57 °F 57 °F - ()
Growing Degree Days 15 (Base 50)    
Moisture  
Dew Point 58 °F    
Average Humidity 78    
Maximum Humidity 94    
Minimum Humidity 57    
Precipitation  
Precipitation 0.00 in 0.12 in - ()
Sea Level Pressure  
Sea Level Pressure 30.03 in    
Wind  
Wind Speed 6 mph ()    
Max Wind Speed 17 mph    
Max Gust Speed -    
Visibility 6.2 miles    
Events      
T = Trace of Precipitation, MM = Missing Value Source: Averaged Metar Reports

Daily Weather History Graph

Daily Weather History Graph

Search for Another Location

Airport or City:

Trip Planner

Search our weather history database for the weather conditions in past years. The results will help you decide how hot, cold, wet, or windy it might be!

Date:

Astronomy

Mar. 06, 2013 Rise Set
Actual Time 7:10 AM NZDT 7:53 PM NZDT
Civil Twilight 6:44 AM NZDT 8:19 PM NZDT
Nautical Twilight 6:13 AM NZDT 8:50 PM NZDT
Astronomical Twilight 5:41 AM NZDT 9:22 PM NZDT
Moon 12:52 AM NZDT (3/6) 3:33 PM NZDT (3/6)
Length of Visible Light 13h 35m
Length of Day
12h 42m
Last Quarter, 38% of the Moon is Illuminated
Mar 6
Last Quarter
Mar 12
New
Mar 20
First Quarter
Mar 27
Full
Apr 3
Last Quarter

Hourly Weather History & Observations

Time (NZDT) Temp. Dew Point Humidity Pressure Visibility Wind Dir Wind Speed Gust Speed Precip Events Conditions
12:00 AM 60.8 °F 55.4 °F 82% 30.06 in 6.2 mi East 3.5 mph - N/A   Partly Cloudy
1:00 AM 60.8 °F 55.4 °F 82% 30.06 in 6.2 mi East 2.3 mph - N/A   Partly Cloudy
2:00 AM 59.0 °F 57.2 °F 94% 30.06 in 6.2 mi ESE 2.3 mph - N/A   Partly Cloudy
3:00 AM 59.0 °F 55.4 °F 88% 30.06 in 6.2 mi NNE 2.3 mph - N/A   Partly Cloudy
4:00 AM 59.0 °F 55.4 °F 88% 30.04 in 6.2 mi West 1.2 mph - N/A   Partly Cloudy
5:00 AM 59.0 °F 57.2 °F 94% 30.04 in 6.2 mi ESE 3.5 mph - N/A   Partly Cloudy
6:00 AM 59.0 °F 57.2 °F 94% 30.04 in - ESE 3.5 mph - N/A   Clear
7:00 AM 57.2 °F 55.4 °F 94% 30.06 in - ESE 1.2 mph - N/A   Clear
8:00 AM 59.0 °F 57.2 °F 94% 30.06 in - SSE 2.3 mph - N/A   Clear
9:00 AM 62.6 °F 59.0 °F 88% 30.06 in - SSE 3.5 mph - N/A   Clear
10:00 AM 66.2 °F 59.0 °F 78% 30.06 in 6.2 mi South 3.5 mph - N/A   Partly Cloudy
11:00 AM 68.0 °F 59.0 °F 73% 30.06 in 6.2 mi SSW 5.8 mph - N/A   Scattered Clouds
12:00 PM 71.6 °F 60.8 °F 69% 30.06 in 6.2 mi SSW 5.8 mph - N/A   Scattered Clouds
1:00 PM 69.8 °F 60.8 °F 73% 30.04 in 6.2 mi SSW 15.0 mph - N/A   Mostly Cloudy
2:00 PM 71.6 °F 60.8 °F 69% 30.04 in 6.2 mi SSW 9.2 mph - N/A   Scattered Clouds
3:00 PM 73.4 °F 59.0 °F 61% 30.01 in 6.2 mi SW 13.8 mph - N/A   Scattered Clouds
4:00 PM 73.4 °F 57.2 °F 57% 30.01 in 6.2 mi SW 17.3 mph - N/A   Scattered Clouds
5:00 PM 71.6 °F 57.2 °F 60% 29.98 in 6.2 mi SW 16.1 mph - N/A   Scattered Clouds
6:00 PM 69.8 °F 57.2 °F 64% 29.98 in 6.2 mi SW 15.0 mph - N/A   Scattered Clouds
7:00 PM 68.0 °F 57.2 °F 68% 29.98 in 6.2 mi SW 16.1 mph - N/A   Scattered Clouds
8:00 PM 66.2 °F 57.2 °F 73% 29.98 in 6.2 mi SW 16.1 mph - N/A   Scattered Clouds
9:00 PM 66.2 °F 59.0 °F 78% 30.01 in 6.2 mi SW 13.8 mph - N/A   Mostly Cloudy
10:00 PM 66.2 °F 57.2 °F 73% 30.01 in 6.2 mi SSW 15.0 mph - N/A   Mostly Cloudy
11:00 PM 66.2 °F 57.2 °F 73% 30.01 in 6.2 mi SSW 13.8 mph - N/A   Mostly Cloudy